Location: Cruquius
(52.3348°N, 4.6319°E)
Time: 17:46:36
(UTC+00:00)

Cosmos 1782 - Pass Details

Date: 12 May 2021
Orbit: 537 x 550 km, 82.5° (Epoch: 21 June)

Event Time Altitude Azimuth Distance (km) Brightness Sun altitude
Rises 20:17:13 0° 185° (S) 2,706 6.0 -7.0°
Reaches altitude 10° 20:19:22 10° 184° (S) 1,816 5.1 -7.3°
Maximum altitude 20:23:21 77° 99° (E) 567 2.8 -7.7°
Drops below altitude 10° 20:27:22 10° 13° (NNE) 1,824 5.9 -8.1°
Sets 20:29:32 0° 12° (NNE) 2,720 6.9 -8.4°
